Sierra Vista, AZ

5:14 PM MST on August 28, 2016 (GMT -0700)
Sierra Vista Municipal-Libby Army Air Field

Weather History for KFHU - May, 2009

Change the Weather History Date:

Sunday, May 10, 2009

  Actual Average Record
Temperature  
Mean Temperature 78 °F -  
Max Temperature 93 °F 82 °F 93 °F (1984)
Min Temperature 62 °F 59 °F 45 °F (1986)
Cooling Degree Days 12    
Growing Degree Days 28 (Base 50)    
Moisture  
Dew Point 18 °F    
Average Humidity 12    
Maximum Humidity 23    
Minimum Humidity 4    
Precipitation  
Precipitation 0.00 in - - ()
Sea Level Pressure  
Sea Level Pressure 29.82 in    
Wind  
Wind Speed 7 mph (WSW)    
Max Wind Speed 17 mph    
Max Gust Speed 28 mph    
Visibility 10 miles    
Events      
Averages and records for this station are not official NWS values.
T = Trace of Precipitation, MM = Missing Value Source: NWS Daily Summary

Daily Weather History Graph

Daily Weather History Graph

Search for Another Location

Airport or City:

Trip Planner

Search our weather history database for the weather conditions in past years. The results will help you decide how hot, cold, wet, or windy it might be!

Date:

Astronomy

May. 10, 2009 Rise Set
Actual Time 5:28 AM MST 7:07 PM MST
Civil Twilight 5:01 AM MST 7:34 PM MST
Nautical Twilight 4:30 AM MST 8:06 PM MST
Astronomical Twilight 3:56 AM MST 8:39 PM MST
Moon 9:01 PM MST (5/10) 6:11 AM MST (5/10)
Length of Visible Light 14h 32m
Length of Day
13h 39m
Full, 97% of the Moon is Illuminated
May 10
Full
May 17
Last Quarter
May 24
New
May 30
First Quarter
Jun 7
Full

Hourly Weather History & Observations

Time (MST) Temp. Dew Point Humidity Pressure Visibility Wind Dir Wind Speed Gust Speed Precip Events Conditions
12:56 AM 75.0 °F 21.0 °F 13% 29.81 in 10.0 mi WSW 3.5 mph - N/A   Clear
1:56 AM 71.1 °F 19.9 °F 14% 29.81 in 10.0 mi East 5.8 mph - N/A   Clear
2:56 AM 64.0 °F 21.0 °F 19% 29.82 in 10.0 mi Calm Calm - N/A   Clear
3:56 AM 62.1 °F 21.9 °F 21% 29.83 in 10.0 mi SSE 6.9 mph - N/A   Clear
4:56 AM 63.0 °F 24.1 °F 23% 29.83 in 10.0 mi Calm Calm - N/A   Clear
5:56 AM 64.0 °F 25.0 °F 23% 29.85 in 10.0 mi South 11.5 mph - N/A   Clear
6:56 AM 71.1 °F 30.0 °F 22% 29.86 in 10.0 mi WNW 3.5 mph - N/A   Clear
7:56 AM 75.0 °F 27.0 °F 17% 29.86 in 10.0 mi NE 3.5 mph - N/A   Clear
8:56 AM 80.1 °F 27.0 °F 14% 29.86 in 10.0 mi ENE 6.9 mph - N/A   Clear
9:56 AM 82.9 °F 23.0 °F 11% 29.85 in 10.0 mi Variable 3.5 mph - N/A   Clear
10:56 AM 89.1 °F 15.1 °F 6% 29.84 in 10.0 mi Calm Calm - N/A   Clear
11:56 AM 90.0 °F 9.0 °F 5% 29.82 in 10.0 mi SW 10.4 mph 16.1 mph N/A   Clear
12:56 PM 91.9 °F 8.1 °F 4% 29.80 in 10.0 mi WNW 11.5 mph 20.7 mph N/A   Clear
1:56 PM 93.0 °F 9.0 °F 4% 29.80 in 10.0 mi WSW 15.0 mph 21.9 mph N/A   Clear
2:56 PM 91.9 °F 9.0 °F 5% 29.79 in 10.0 mi WNW 10.4 mph 26.5 mph N/A   Clear
3:56 PM 91.9 °F 10.0 °F 5% 29.78 in 10.0 mi WSW 17.3 mph 27.6 mph N/A   Clear
4:56 PM 90.0 °F 10.9 °F 5% 29.78 in 10.0 mi West 9.2 mph 17.3 mph N/A   Clear
5:56 PM 88.0 °F 12.0 °F 6% 29.78 in 10.0 mi West 16.1 mph 23.0 mph N/A   Clear
6:56 PM 84.0 °F 14.0 °F 7% 29.78 in 10.0 mi WSW 12.7 mph - N/A   Clear
7:56 PM 77.0 °F 17.1 °F 10% 29.81 in 10.0 mi WSW 10.4 mph - N/A   Clear
8:56 PM 78.1 °F 17.1 °F 10% 29.81 in 10.0 mi WSW 11.5 mph - N/A   Clear
9:56 PM 75.0 °F 17.1 °F 11% 29.82 in 10.0 mi West 11.5 mph - N/A   Clear
10:56 PM 75.0 °F 16.0 °F 11% 29.81 in 10.0 mi West 15.0 mph - N/A   Clear
11:56 PM 75.0 °F 16.0 °F 11% 29.81 in 10.0 mi West 13.8 mph - N/A   Clear